Weather History for LKPR - March, 2013

Change the Weather History Date:

Thursday, March 7, 2013

  Actual Average Record
Temperature  
Mean Temperature 39 °F -  
Max Temperature 47 °F 48 °F 55 °F (2007)
Min Temperature 31 °F 31 °F 15 °F (2005)
Degree Days  
Heating Degree Days 26    
Moisture  
Dew Point 38 °F    
Average Humidity 88    
Maximum Humidity 100    
Minimum Humidity 74    
Precipitation  
Precipitation 0.00 in 0.04 in - ()
Sea Level Pressure  
Sea Level Pressure 29.60 in    
Wind  
Wind Speed 4 mph ()    
Max Wind Speed 7 mph    
Max Gust Speed -    
Visibility 3.5 miles    
Events Fog , Rain    
Averages and records for this station are not official NWS values.
T = Trace of Precipitation, MM = Missing Value Source: Averaged Metar Reports

Daily Weather History Graph

Daily Weather History Graph

Search for Another Location

Airport or City:

Trip Planner

Search our weather history database for the weather conditions in past years. The results will help you decide how hot, cold, wet, or windy it might be!

Date:

Astronomy

Mar. 07, 2013 Rise Set
Actual Time 6:33 AM CET 5:55 PM CET
Civil Twilight 6:01 AM CET 6:27 PM CET
Nautical Twilight 5:24 AM CET 7:04 PM CET
Astronomical Twilight 4:46 AM CET 7:42 PM CET
Moon 3:42 AM CET (3/7) 1:01 PM CET (3/7)
Length of Visible Light 12h 25m
Length of Day
11h 21m
Waning Crescent, 22% of the Moon is Illuminated
Mar 7
Waning Crescent
Mar 11
New
Mar 19
First Quarter
Mar 27
Full
Apr 3
Last Quarter

Hourly Weather History & Observations

Time (CET) Temp. Windchill Dew Point Humidity Pressure Visibility Wind Dir Wind Speed Gust Speed Precip Events Conditions
12:00 AM 35.6 °F 32.8 °F 32.0 °F 87% 29.62 in - North 3.5 mph - N/A   Clear
12:30 AM 35.6 °F 31.7 °F 32.0 °F 87% 29.62 in - North 4.6 mph - N/A   Clear
1:00 AM 35 °F - 32 °F 83% 29.69 in 7 mi North 4.5 mph - -   Overcast
1:00 AM 35.6 °F 30.7 °F 32.0 °F 87% 29.62 in - North 5.8 mph - N/A   Clear
1:30 AM 35.6 °F 31.7 °F 32.0 °F 87% 29.62 in - North 4.6 mph - N/A   Clear
2:00 AM 35.6 °F 29.9 °F 32.0 °F 87% 29.62 in 5.6 mi North 6.9 mph - N/A   Unknown
2:30 AM 33.8 °F 27.7 °F 32.0 °F 93% 29.59 in 3.7 mi NNE 6.9 mph - N/A   Unknown
3:00 AM 33.8 °F 30.8 °F 32.0 °F 93% 29.59 in 3.1 mi North 3.5 mph - N/A   Mist
3:30 AM 32.0 °F 27.5 °F 30.2 °F 93% 29.59 in 3.1 mi North 4.6 mph - N/A   Mist
4:00 AM 32.0 °F 28.7 °F 32.0 °F 100% 29.59 in 3.1 mi North 3.5 mph - N/A   Mist
4:30 AM 33.8 °F 28.6 °F 32.0 °F 93% 29.59 in 3.1 mi North 5.8 mph - N/A   Mist
5:00 AM 33.8 °F 28.6 °F 33.8 °F 100% 29.59 in 3.1 mi North 5.8 mph - N/A   Mist
5:30 AM 33.8 °F 28.6 °F 33.8 °F 100% 29.59 in 2.8 mi NNE 5.8 mph - N/A   Mist
6:00 AM 33.8 °F 29.6 °F 33.8 °F 100% 29.56 in 2.8 mi North 4.6 mph - N/A   Mist
6:30 AM 35.6 °F 30.7 °F 33.8 °F 93% 29.56 in 2.5 mi North 5.8 mph - N/A   Mist
7:00 AM 35 °F - 34 °F 95% 29.64 in 2 mi North 4.5 mph - -   Mist
7:00 AM 35.6 °F 31.7 °F 33.8 °F 93% 29.59 in 2.2 mi North 4.6 mph - N/A   Mist
7:30 AM 37.4 °F 34.9 °F 35.6 °F 93% 29.59 in 2.2 mi North 3.5 mph - N/A   Mist
8:00 AM 37.4 °F 33.8 °F 35.6 °F 93% 29.59 in 2.5 mi NNW 4.6 mph - N/A   Mist
8:30 AM 37.4 °F 34.9 °F 35.6 °F 93% 29.59 in - North 3.5 mph - N/A   Mist
9:00 AM 39.2 °F 37.0 °F 35.6 °F 87% 29.59 in - NNW 3.5 mph - N/A   Mostly Cloudy
9:30 AM 39.2 °F 35.9 °F 37.4 °F 93% 29.59 in 2.8 mi North 4.6 mph - N/A   Mostly Cloudy
10:00 AM 39.2 °F 37.0 °F 37.4 °F 93% 29.59 in 3.1 mi NNW 3.5 mph - N/A   Scattered Clouds
10:30 AM 41.0 °F - 37.4 °F 87% 29.59 in 3.7 mi Variable 2.3 mph - N/A   Partly Cloudy
11:00 AM 42.8 °F - 39.2 °F 87% 29.59 in 3.7 mi Variable 2.3 mph - N/A   Unknown
11:30 AM 42.8 °F 41.1 °F 39.2 °F 87% 29.59 in 3.7 mi NNE 3.5 mph - N/A   Unknown
12:00 PM 44.6 °F 42.2 °F 39.2 °F 81% 29.59 in 4.3 mi NNW 4.6 mph - N/A   Mostly Cloudy
12:30 PM 44.6 °F 43.1 °F 39.2 °F 81% 29.59 in 4.3 mi NNW 3.5 mph - N/A   Mostly Cloudy
1:00 PM 45 °F - 39 °F 74% 29.62 in 4 mi NNW 2.2 mph - -   Mist
1:00 PM 44.6 °F - 39.2 °F 81% 29.59 in 4.3 mi Variable 2.3 mph - N/A   Mostly Cloudy
1:30 PM 46.4 °F 45.2 °F 41.0 °F 81% 29.59 in 4.3 mi NNE 3.5 mph - N/A   Scattered Clouds
2:00 PM 46.4 °F 45.2 °F 41.0 °F 81% 29.59 in 4.3 mi ENE 3.5 mph - N/A   Unknown
2:30 PM 46.4 °F 44.3 °F 41.0 °F 81% 29.56 in 5.0 mi NNE 4.6 mph - N/A   Unknown
3:00 PM 46.4 °F 44.3 °F 41.0 °F 81% 29.56 in 5.6 mi NNE 4.6 mph - N/A   Unknown
3:30 PM 46.4 °F 45.2 °F 41.0 °F 81% 29.56 in 5.0 mi North 3.5 mph - N/A   Unknown
4:00 PM 46.4 °F 44.3 °F 41.0 °F 81% 29.59 in 5.0 mi North 4.6 mph - N/A   Unknown
4:30 PM 48.2 °F - 41.0 °F 76% 29.59 in 5.0 mi NNE 2.3 mph - N/A   Unknown
5:00 PM 48.2 °F - 41.0 °F 76% 29.59 in 5.0 mi NNE 3.5 mph - N/A   Unknown
5:30 PM 46.4 °F 44.3 °F 41.0 °F 81% 29.59 in 5.0 mi NE 4.6 mph - N/A   Unknown
6:00 PM 46.4 °F - 41.0 °F 81% 29.59 in 5.0 mi NNE 2.3 mph - N/A Rain Light Rain
6:30 PM 44.6 °F 43.1 °F 41.0 °F 87% 29.59 in 5.0 mi North 3.5 mph - N/A Rain Light Rain
7:00 PM 45 °F - 42 °F 84% 29.65 in 5 mi NNE 4.5 mph - - Rain Light Rain
7:00 PM 44.6 °F 42.2 °F 41.0 °F 87% 29.62 in 5.0 mi NNE 4.6 mph - N/A   Mostly Cloudy
7:30 PM 44.6 °F 42.2 °F 41.0 °F 87% 29.62 in 5.0 mi NNE 4.6 mph - N/A Rain Light Rain
8:00 PM 44.6 °F 43.1 °F 41.0 °F 87% 29.62 in 4.3 mi North 3.5 mph - N/A   Mostly Cloudy
8:30 PM 44.6 °F - 41.0 °F 87% 29.62 in 4.3 mi NNE 2.3 mph - N/A   Scattered Clouds
8:49 PM 44.6 °F 42.2 °F 42.8 °F 93% 29.62 in 2.8 mi NE 4.6 mph - N/A Rain Light Rain
9:00 PM 44.6 °F 41.4 °F 42.8 °F 93% 29.62 in 2.8 mi NE 5.8 mph - N/A Rain Light Rain
9:30 PM 44.6 °F 42.2 °F 42.8 °F 93% 29.62 in 2.5 mi ENE 4.6 mph - N/A Rain Light Rain
10:00 PM 44.6 °F 42.2 °F 42.8 °F 93% 29.62 in 1.9 mi NE 4.6 mph - N/A Rain Light Rain
10:06 PM 44.6 °F 41.4 °F 42.8 °F 93% 29.62 in 1.9 mi NE 5.8 mph - N/A Rain Light Rain
10:30 PM 44.6 °F 42.2 °F 42.8 °F 93% 29.62 in 1.4 mi NNE 4.6 mph - N/A Rain Light Rain
10:45 PM 42.8 °F - 41.0 °F 93% 29.62 in 0.8 mi Variable 2.3 mph - N/A Rain Light Rain
11:00 PM 42.8 °F - 41.0 °F 93% 29.62 in 0.8 mi Variable 2.3 mph - N/A Rain Light Rain
11:04 PM 42.8 °F - 41.0 °F 93% 29.62 in 0.5 mi Variable 2.3 mph - N/A Fog , Rain Light Rain
11:12 PM 42.8 °F - 41.0 °F 93% 29.62 in 0.6 mi Variable 1.2 mph - N/A Fog , Rain Light Rain
11:30 PM 42.8 °F 41.1 °F 41.0 °F 93% 29.62 in 0.5 mi NW 3.5 mph - N/A Fog , Rain Light Rain